Sigfox identifier Datetime Temperature Humidity SNR
002EF606 2019-04-23 14:53:16 16.1 32 22.2
002EF606 2019-04-23 14:19:48 16.1 31 22
002EF606 2019-04-23 13:46:21 15.9 31 22.1
002EF606 2019-04-23 13:12:53 15.9 31 21.9
002EF606 2019-04-23 12:39:25 15.9 31 21.9
002EF606 2019-04-23 12:05:59 15.8 31 21.9
002EF606 2019-04-23 11:32:31 15.7 31 21.8
002EF606 2019-04-23 10:59:03 15.7 31 21.8
002EF606 2019-04-23 10:25:37 15.7 31 21.6
002EF606 2019-04-23 09:52:10 15.7 31 20.4
002EF606 2019-04-23 09:18:44 15.7 31 20
002EF606 2019-04-23 08:45:17 15.7 31 19.8
002EF606 2019-04-23 08:11:50 15.7 31 19.5
002EF606 2019-04-23 07:38:24 15.7 31 19.6
002EF606 2019-04-23 07:04:57 15.6 31 19.6
002EF606 2019-04-23 06:31:31 15.7 31 19.5
002EF606 2019-04-23 05:58:05 15.6 31 19.4
002EF606 2019-04-23 05:24:38 15.5 31 19.3
002EF606 2019-04-23 04:51:11 15.6 31 19.2
002EF606 2019-04-23 04:17:44 15.6 31 19.1
002EF606 2019-04-23 03:44:17 15.6 31 19.1
002EF606 2019-04-23 03:10:50 15.6 31 18.9
002EF606 2019-04-23 02:37:22 15.7 31 18.9
002EF606 2019-04-23 02:03:55 15.7 31 20.6
002EF606 2019-04-23 01:30:28 15.7 31 20.6
002EF606 2019-04-23 00:57:02 15.7 31 20.5
002EF606 2019-04-23 00:23:36 15.7 31 20.5
002EF606 2019-04-22 23:50:11 15.7 31 20.4
002EF606 2019-04-22 23:16:46 15.7 31 20.4
002EF606 2019-04-22 22:43:21 15.8 31 20.3
002EF606 2019-04-22 22:09:53 15.7 31 20.2
002EF606 2019-04-22 21:36:25 15.9 31 20.2
002EF606 2019-04-22 21:02:59 15.9 31 20.2
002EF606 2019-04-22 20:29:32 15.9 31 20.1
002EF606 2019-04-22 19:56:07 15.9 31 20.1
002EF606 2019-04-22 19:22:41 15.9 31 20.2
002EF606 2019-04-22 18:49:16 15.9 31 20.2
002EF606 2019-04-22 18:15:48 15.9 31 20.3
002EF606 2019-04-22 17:42:23 15.9 31 20.3
002EF606 2019-04-22 17:08:57 15.9 31 20.2
002EF606 2019-04-22 16:35:31 15.9 30 20.3
002EF606 2019-04-22 16:02:05 15.8 30 20.3
002EF606 2019-04-22 15:28:40 15.8 30 20.4
002EF606 2019-04-22 14:55:15 15.8 30 20.4
002EF606 2019-04-22 14:21:49 15.7 30 20.5
002EF606 2019-04-22 13:48:24 15.7 30 20.6
002EF606 2019-04-22 13:14:57 15.7 30 20.6
002EF606 2019-04-22 12:41:30 15.7 30 20.7
002EF606 2019-04-22 12:08:04 15.7 30 19
002EF606 2019-04-22 11:34:38 15.7 30 19.1
002EF606 2019-04-22 11:01:14 15.7 30 19
002EF606 2019-04-22 10:27:46 15.7 30 19
002EF606 2019-04-22 09:54:21 15.7 30 19.1
002EF606 2019-04-22 09:20:55 15.7 30 19.1
002EF606 2019-04-22 08:47:29 15.7 30 19.1
002EF606 2019-04-22 08:14:02 15.7 30 19.2
002EF606 2019-04-22 07:40:37 15.7 30 19.2
002EF606 2019-04-22 07:07:11 15.7 30 19.2
002EF606 2019-04-22 06:33:44 15.7 30 19.2
002EF606 2019-04-22 06:00:19 15.7 30 19.2
002EF606 2019-04-22 05:26:52 15.6 30 20.7
002EF606 2019-04-22 04:53:26 15.6 30 20.7
002EF606 2019-04-22 04:19:59 15.6 30 20.8
002EF606 2019-04-22 03:46:32 15.5 30 20.7
002EF606 2019-04-22 03:13:05 15.5 30 20.7
002EF606 2019-04-22 02:39:39 15.5 30 20.7
002EF606 2019-04-22 02:06:13 15.5 30 20.7
002EF606 2019-04-22 01:32:47 15.5 30 20.7
002EF606 2019-04-22 00:59:20 15.5 30 20.7
002EF606 2019-04-22 00:25:54 15.5 30 20.7
002EF606 2019-04-21 23:52:27 15.5 30 20.6
002EF606 2019-04-21 23:19:01 15.5 30 20.6
002EF606 2019-04-21 22:45:35 15.5 30 20.5
002EF606 2019-04-21 22:12:10 15.5 30 20.4
002EF606 2019-04-21 21:38:44 15.5 30 20.4
002EF606 2019-04-21 21:05:18 15.5 30 20.4
002EF606 2019-04-21 20:31:52 15.5 30 20.3
002EF606 2019-04-21 19:58:27 15.5 30 20.3
002EF606 2019-04-21 19:25:01 15.5 29 20.2
002EF606 2019-04-21 18:51:35 15.5 30 20.2
002EF606 2019-04-21 18:18:09 15.5 29 20.1
002EF606 2019-04-21 17:44:43 15.5 29 20.1
002EF606 2019-04-21 17:11:16 15.5 29 20.2
002EF606 2019-04-21 16:37:51 15.5 29 20.2
002EF606 2019-04-21 16:04:25 15.5 29 20.2
002EF606 2019-04-21 15:30:58 15.5 29 18.2
002EF606 2019-04-21 14:57:33 15.5 29 18.1
002EF606 2019-04-21 14:24:06 15.5 29 18.3
002EF606 2019-04-21 13:50:40 15.5 29 18.5
002EF606 2019-04-21 13:17:13 15.5 29 18.4
002EF606 2019-04-21 12:43:48 15.5 29 18.5
002EF606 2019-04-21 12:10:21 15.5 29 18.4
002EF606 2019-04-21 11:36:56 15.5 29 18.4
002EF606 2019-04-21 11:03:29 15.5 29 18.5
002EF606 2019-04-21 10:30:02 15.6 29 18.5
002EF606 2019-04-21 09:56:35 15.6 29 18.5
002EF606 2019-04-21 09:23:08 15.7 29 18.6
002EF606 2019-04-21 08:49:42 15.7 29 18.7
002EF606 2019-04-21 08:16:18 15.7 29 18.8
002EF606 2019-04-21 07:42:51 15.7 29 18.8
002EF606 2019-04-21 07:09:25 15.7 29 18.9
002EF606 2019-04-21 06:35:58 15.7 29 19
002EF606 2019-04-21 06:02:32 15.7 29 19.1
002EF606 2019-04-21 05:29:07 15.6 29 19.2
002EF606 2019-04-21 04:55:38 15.7 29 19.1
002EF606 2019-04-21 04:22:11 15.6 29 19.1
002EF606 2019-04-21 03:48:45 15.6 29 19.1
002EF606 2019-04-21 03:15:19 15.5 29 19.2
002EF606 2019-04-21 02:41:53 15.6 29 19.1
002EF606 2019-04-21 02:08:26 15.5 29 19.2
002EF606 2019-04-21 01:34:59 15.5 29 19.2
002EF606 2019-04-21 01:01:32 15.5 29 19
002EF606 2019-04-21 00:28:04 15.5 29 18.9
002EF606 2019-04-20 23:54:37 15.5 29 18.9
002EF606 2019-04-20 23:21:11 15.5 29 18.9
002EF606 2019-04-20 22:47:43 15.5 28 18.9
002EF606 2019-04-20 22:14:16 15.5 28 19.1
002EF606 2019-04-20 21:40:50 15.5 28 19.1
002EF606 2019-04-20 21:07:23 15.5 28 19
002EF606 2019-04-20 20:33:56 15.5 28 19
002EF606 2019-04-20 20:00:29 15.5 28 19.2
002EF606 2019-04-20 19:27:03 15.5 28 19.3
002EF606 2019-04-20 18:53:35 15.5 28 19.4
002EF606 2019-04-20 18:20:10 15.5 28 19.4
002EF606 2019-04-20 17:46:43 15.5 28 19.4
002EF606 2019-04-20 17:13:17 15.5 28 19.3
002EF606 2019-04-20 16:39:50 15.5 28 19.3
002EF606 2019-04-20 16:06:24 15.5 28 19.3
002EF606 2019-04-20 15:32:59 15.5 28 19.2
002EF606 2019-04-20 14:59:30 15.5 28 19.1
002EF606 2019-04-20 14:26:03 15.5 28 19.1
002EF606 2019-04-20 13:52:35 15.5 28 19.1
002EF606 2019-04-20 13:19:07 15.6 28 19.1
002EF606 2019-04-20 12:45:40 15.6 28 19.2
002EF606 2019-04-20 12:12:13 15.5 28 19
002EF606 2019-04-20 11:38:47 15.7 28 19
002EF606 2019-04-20 11:05:21 15.6 28 18.9
002EF606 2019-04-20 10:31:54 15.7 28 19
002EF606 2019-04-20 09:58:28 15.7 28 19.1
002EF606 2019-04-20 09:25:00 15.7 28 19
002EF606 2019-04-20 08:51:33 15.7 28 19
002EF606 2019-04-20 08:18:06 15.7 28 18.9
002EF606 2019-04-20 07:44:39 15.7 28 19
002EF606 2019-04-20 07:11:12 15.7 28 19.1
002EF606 2019-04-20 06:37:45 15.7 28 19.1
002EF606 2019-04-20 06:04:18 15.7 28 18.9
002EF606 2019-04-20 05:30:51 15.7 28 18.9
002EF606 2019-04-20 04:57:25 15.7 28 18.8
002EF606 2019-04-20 04:23:57 15.7 27 18.9
002EF606 2019-04-20 03:50:31 15.9 27 18.9
002EF606 2019-04-20 03:17:02 15.9 27 18.9
002EF606 2019-04-20 02:43:34 15.9 27 18.9
002EF606 2019-04-20 02:10:07 15.9 27 18.8
002EF606 2019-04-20 01:36:39 15.9 27 18.8
002EF606 2019-04-20 01:03:10 15.9 27 18.8
002EF606 2019-04-20 00:29:40 15.9 27 18.7
002EF606 2019-04-19 23:56:12 16.1 27 18.7
002EF606 2019-04-19 23:22:42 16.1 27 18.7
002EF606 2019-04-19 22:49:14 16.1 27 18.8
002EF606 2019-04-19 22:15:50 16.1 27 19
002EF606 2019-04-19 21:42:18 16.1 27 18.9
002EF606 2019-04-19 21:08:50 16.1 27 18.8
002EF606 2019-04-19 20:35:22 16.1 27 18.9
002EF606 2019-04-19 20:01:52 16.1 27 18.9
002EF606 2019-04-19 19:28:24 16.1 27 18.9
002EF606 2019-04-19 18:54:56 16.1 27 18.9
002EF606 2019-04-19 18:21:28 16.1 27 18.8
002EF606 2019-04-19 17:48:00 16.1 27 18.8
002EF606 2019-04-19 17:14:32 16.1 27 18.9
002EF606 2019-04-19 16:41:03 16.1 27 18.9
002EF606 2019-04-19 16:07:36 16 27 19
002EF606 2019-04-19 15:34:07 16.1 27 18.7
002EF606 2019-04-19 15:00:40 15.9 27 18.8
002EF606 2019-04-19 14:27:13 15.9 27 18.8
002EF606 2019-04-19 13:53:45 15.9 27 18.9
002EF606 2019-04-19 13:20:17 15.9 27 19
002EF606 2019-04-19 12:46:50 15.9 27 19.1
002EF606 2019-04-19 12:13:22 15.9 27 19.3
002EF606 2019-04-19 11:39:53 15.9 27 19.4
002EF606 2019-04-19 11:06:25 15.9 26 19.5
002EF606 2019-04-19 10:32:57 15.9 26 19.6
002EF606 2019-04-19 09:59:29 15.9 26 19.6
002EF606 2019-04-19 09:26:02 15.9 26 19.5
002EF606 2019-04-19 08:52:35 15.9 26 19.5
002EF606 2019-04-19 08:19:07 15.9 26 19.7
002EF606 2019-04-19 07:45:38 15.9 26 19.7
002EF606 2019-04-19 07:12:11 15.9 26 19.7
002EF606 2019-04-19 06:38:44 15.9 26 19.8
002EF606 2019-04-19 06:05:17 16 26 19.9
002EF606 2019-04-19 05:31:49 16.1 26 20.1
002EF606 2019-04-19 04:58:22 15.9 26 20.3
002EF606 2019-04-19 04:24:55 16.1 26 20.6
002EF606 2019-04-19 03:51:28 16.1 26 20.7
002EF606 2019-04-19 03:18:01 16.1 26 20.9
002EF606 2019-04-19 02:44:35 16.1 26 21.1
002EF606 2019-04-19 02:11:09 16.2 26 21.3
002EF606 2019-04-19 01:37:41 16.2 26 21.5
002EF606 2019-04-19 01:04:13 16.3 26 21.4
002EF606 2019-04-19 00:30:45 16.3 26 21.3
002EF606 2019-04-18 23:57:18 16.4 26 21.6
002EF606 2019-04-18 23:23:50 16.5 26 21.6
002EF606 2019-04-18 22:50:22 16.5 26 21.4
002EF606 2019-04-18 22:16:54 16.5 26 21.3
002EF606 2019-04-18 21:43:26 16.5 26 21.3
002EF606 2019-04-18 21:09:59 16.5 26 21.3
002EF606 2019-04-18 20:36:31 16.5 26 21.2
002EF606 2019-04-18 20:03:02 16.5 26 21.3
002EF606 2019-04-18 19:29:34 16.5 26 21.4
002EF606 2019-04-18 18:56:06 16.5 26 21.4
002EF606 2019-04-18 18:22:36 16.5 26 21.5
002EF606 2019-04-18 17:49:07 16.5 26 21.5
002EF606 2019-04-18 17:15:39 16.5 25 21.5
002EF606 2019-04-18 16:42:10 16.4 25 21.6
002EF606 2019-04-18 16:08:47 16.4 25 21.6
002EF606 2019-04-18 15:35:14 16.3 25 21.4
002EF606 2019-04-18 15:01:46 16.3 25 21.3
002EF606 2019-04-18 14:28:17 16.2 25 21.2
002EF606 2019-04-18 13:54:50 16.2 25 21.1
002EF606 2019-04-18 13:21:21 16.2 25 20.8
002EF606 2019-04-18 12:47:51 16.1 25 20.6
002EF606 2019-04-18 12:14:22 16.1 25 20.4
002EF606 2019-04-18 11:40:54 16.1 25 20.4
002EF606 2019-04-18 11:07:24 16.1 25 20.4
002EF606 2019-04-18 10:33:55 16.1 25 20.4
002EF606 2019-04-18 10:00:27 16.1 25 20.2
002EF606 2019-04-18 09:26:58 16.1 25 20.2
002EF606 2019-04-18 08:53:30 16.1 25 20.3
002EF606 2019-04-18 08:20:03 16.3 25 20.5
002EF606 2019-04-18 07:46:34 16.1 25 20.5
002EF606 2019-04-18 07:13:05 16.2 25 20.5
002EF606 2019-04-18 06:39:36 16.1 24 20.5
002EF606 2019-04-18 06:06:07 16.1 24 20.5
002EF606 2019-04-18 05:32:39 16.1 24 20.5
002EF606 2019-04-18 04:59:11 16.2 24 20.3
002EF606 2019-04-18 04:25:43 16.3 24 20.5
002EF606 2019-04-18 03:52:15 16.3 24 20.4
002EF606 2019-04-18 03:18:46 16.3 24 20.4
002EF606 2019-04-18 02:45:16 16.4 24 20.3
002EF606 2019-04-18 02:11:47 16.5 24 20.3
002EF606 2019-04-18 01:38:17 16.5 24 20.3
002EF606 2019-04-18 01:04:48 16.5 24 21.6
002EF606 2019-04-18 00:31:23 16.8 24 22.5
002EF606 2019-04-17 23:57:53 16.8 24 22.6
002EF606 2019-04-17 23:24:25 16.8 24 22.6
002EF606 2019-04-17 22:50:57 16.8 24 22.5
002EF606 2019-04-17 22:17:28 16.8 24 22.5
002EF606 2019-04-17 21:43:59 16.8 24 22.5
002EF606 2019-04-17 21:10:32 16.8 24 22.5
002EF606 2019-04-17 20:37:04 16.8 24 22.6
002EF606 2019-04-17 20:03:36 16.8 24 22.6
002EF606 2019-04-17 19:30:08 16.8 23 22.7
002EF606 2019-04-17 18:56:39 16.8 23 22.8
002EF606 2019-04-17 18:23:11 16.8 23 22.8
002EF606 2019-04-17 17:49:43 16.8 23 22.8
002EF606 2019-04-17 17:16:16 16.8 23 22.8
002EF606 2019-04-17 16:42:49 16.8 23 22.9
002EF606 2019-04-17 16:09:21 16.9 23 23
002EF606 2019-04-17 15:35:52 17 23 23
002EF606 2019-04-17 15:02:23 17 23 23.1
002EF606 2019-04-17 14:28:55 17 23 22.9
002EF606 2019-04-17 13:55:32 17.2 23 23
002EF606 2019-04-17 12:48:30 17.2 23 23
002EF606 2019-04-17 12:15:02 17.2 23 23
002EF606 2019-04-17 11:41:33 17.1 23 22.9
002EF606 2019-04-17 11:08:04 17 23 22.9
002EF606 2019-04-17 10:34:35 17.2 22 21.9
002EF606 2019-04-17 10:01:06 17.2 22 20.6
002EF606 2019-04-17 09:27:37 17.2 22 20.4
002EF606 2019-04-17 08:54:08 17.4 22 20.2
002EF606 2019-04-17 08:20:40 17.4 22 20.1
002EF606 2019-04-17 07:47:12 17.6 22 20.1
002EF606 2019-04-17 07:13:44 17.6 22 20
002EF606 2019-04-17 06:40:15 17.8 22 20.1
002EF606 2019-04-17 06:06:46 17.8 22 20
002EF606 2019-04-17 05:33:18 17.8 22 20.2
002EF606 2019-04-17 04:59:48 17.9 22 20
002EF606 2019-04-17 04:26:19 18 22 19.6
002EF606 2019-04-17 03:52:51 18 22 19.4
002EF606 2019-04-17 03:19:22 18 22 19.2
002EF606 2019-04-17 02:45:54 18.3 22 18.9
002EF606 2019-04-17 02:12:26 18.3 22 18.6
002EF606 2019-04-17 01:38:57 18.3 22 18.2
002EF606 2019-04-17 01:05:29 18.3 21 17.9
002EF606 2019-04-17 00:32:00 18.4 21 17.7
002EF606 2019-04-16 23:58:31 18.5 21 17.5
002EF606 2019-04-16 23:25:02 18.5 21 17
002EF606 2019-04-16 22:51:33 18.7 21 16.5
002EF606 2019-04-16 22:18:06 18.9 21 16.3
002EF606 2019-04-16 21:44:36 19 21 16.2
002EF606 2019-04-16 21:11:06 19.1 21 15.9
002EF606 2019-04-16 20:37:37 19.1 21 15.9
002EF606 2019-04-16 20:04:05 19.3 21 15.9
002EF606 2019-04-16 19:30:36 19.4 21 15.8
002EF606 2019-04-16 18:57:07 19.3 21 15.9
002EF606 2019-04-16 18:23:39 19.5 20 15.9
002EF606 2019-04-16 17:50:08 19.7 20 15.6
002EF606 2019-04-16 16:43:10 20 20 15.5
002EF606 2019-04-16 16:09:39 20.2 20 14.6
002EF606 2019-04-16 15:36:07 20.4 20 14.1
002EF606 2019-04-16 15:02:35 20.6 20 12.5
002EF606 2019-04-16 14:29:03 20.9 21 12.7
002EF606 2019-04-16 13:55:31 21 21 12.6
002EF606 2019-04-16 13:22:02 21 21 12.7
002EF606 2019-04-16 12:14:57 21 21 13
002EF606 2019-04-16 11:41:25 21 21 13
002EF606 2019-04-16 11:07:53 20.9 21 12.9
002EF606 2019-04-16 10:34:22 20.8 21 13.1
002EF606 2019-04-16 10:00:53 20.8 21 13.3
002EF606 2019-04-16 09:27:20 20.9 21 12.9
002EF606 2019-04-16 08:53:53 20.9 21 12.5
002EF606 2019-04-16 06:39:51 20.9 20 12.5
002EF606 2019-04-16 06:06:16 20.9 20 12.8
002EF606 2019-04-16 05:32:46 20.9 20 12.8
002EF606 2019-04-16 04:59:14 20.9 20 13.2
002EF606 2019-04-16 04:25:42 21 20 15.4
002EF606 2019-04-16 00:31:07 21 20 16.1
002EF606 2019-04-15 23:57:33 21 20 17.4
002EF606 2019-04-15 23:24:04 21 20 17.9
002EF606 2019-04-15 22:50:32 21 20 18.4
002EF606 2019-04-15 22:17:03 21.1 20 19.3
002EF606 2019-04-15 21:43:30 21.1 20 21
002EF606 2019-04-15 21:10:00 21.1 19 21.4
002EF606 2019-04-15 20:36:27 21.1 19 21.8
002EF606 2019-04-15 20:02:57 21.2 19 22
002EF606 2019-04-15 19:29:23 21.2 19 22.2
002EF606 2019-04-15 18:55:53 21.3 19 22.4
002EF606 2019-04-15 18:22:24 21.3 19 22.8
002EF606 2019-04-15 17:48:51 21.3 19 22.9
002EF606 2019-04-15 17:15:19 21.4 19 23.1
002EF606 2019-04-15 16:41:47 21.5 19 23.3
002EF606 2019-04-15 16:08:18 21.5 18 23.5
002EF606 2019-04-15 15:34:47 21.7 18 23.7
002EF606 2019-04-15 15:01:13 21.7 18 23.8
002EF606 2019-04-15 14:27:42 21.9 18 24.6
002EF606 2019-04-15 13:54:09 22 18 24.8
002EF606 2019-04-15 13:20:36 22.2 17 24.9
002EF606 2019-04-15 12:47:05 22.3 17 25.4
002EF606 2019-04-15 12:13:33 22.3 17 25.6
002EF606 2019-04-15 11:40:01 22.3 16 25.5
002EF606 2019-04-15 11:06:29 22.2 16 25.6
002EF606 2019-04-15 10:32:57 22.1 16 25.5
002EF606 2019-04-15 09:59:24 22.2 16 25.6
002EF606 2019-04-15 09:25:51 22.1 17 25.6
002EF606 2019-04-15 08:52:19 22 16 25.5
002EF606 2019-04-15 08:18:48 21.9 16 25.2
002EF606 2019-04-15 07:45:16 21.9 16 25.2
002EF606 2019-04-15 07:11:44 21.8 17 25.2
002EF606 2019-04-15 06:38:13 21.8 17 25.2
002EF606 2019-04-15 06:04:43 21.8 17 25.2
002EF606 2019-04-15 05:31:12 21.7 17 25.2
002EF606 2019-04-15 04:57:42 21.7 17 25.2
002EF606 2019-04-15 04:24:12 21.7 17 25.1
002EF606 2019-04-15 03:50:41 21.8 17 25.1
002EF606 2019-04-15 03:17:10 21.7 17 25.1
002EF606 2019-04-15 02:43:38 21.8 17 25.2
002EF606 2019-04-15 02:10:08 21.7 17 25.1
002EF606 2019-04-15 01:36:37 21.7 17 25.1
002EF606 2019-04-15 01:03:08 21.7 17 24.6
002EF606 2019-04-15 00:29:38 21.7 17 25.1
002EF606 2019-04-14 23:56:09 21.7 17 25.4
002EF606 2019-04-14 23:22:38 21.7 17 25.4
002EF606 2019-04-14 22:49:06 21.8 17 25.1
002EF606 2019-04-14 22:15:35 21.9 17 25
002EF606 2019-04-14 21:42:04 21.9 18 25
002EF606 2019-04-14 21:08:32 21.9 18 24.9
002EF606 2019-04-14 20:35:00 21.9 18 24.9
002EF606 2019-04-14 20:01:29 21.9 18 24.8
002EF606 2019-04-14 19:27:58 22 18 24.8
002EF606 2019-04-14 18:54:26 21.9 18 24.8
002EF606 2019-04-14 18:20:55 21.9 18 24.7
002EF606 2019-04-14 17:47:23 21.9 17 24.7
002EF606 2019-04-14 17:13:50 21.9 17 24.8
002EF606 2019-04-14 16:40:17 21.9 17 24.7
002EF606 2019-04-14 16:06:43 21.9 18 24.8
002EF606 2019-04-14 15:33:12 21.9 18 24.8
002EF606 2019-04-14 14:59:41 21.9 18 24.9
002EF606 2019-04-14 14:26:08 21.9 18 24.9
002EF606 2019-04-14 13:52:36 21.9 18 24.9
002EF606 2019-04-14 13:19:05 21.9 18 24.9
002EF606 2019-04-14 12:45:33 21.9 18 24.9
002EF606 2019-04-14 12:12:00 21.9 18 24.9
002EF606 2019-04-14 11:38:28 21.9 18 25.3
002EF606 2019-04-14 11:04:56 21.9 18 25.4
002EF606 2019-04-14 10:31:24 21.9 18 25.1
002EF606 2019-04-14 09:57:51 21.9 18 24.6
002EF606 2019-04-14 09:24:18 21.9 18 24.8
002EF606 2019-04-14 08:50:46 21.9 18 25.1
002EF606 2019-04-14 08:17:12 21.8 18 25.2
002EF606 2019-04-14 07:43:39 21.8 18 25.3
002EF606 2019-04-14 07:10:06 21.9 17 25.7
002EF606 2019-04-14 06:36:33 21.9 17 25.7
002EF606 2019-04-14 06:03:00 21.9 17 25.7
002EF606 2019-04-14 05:29:28 21.9 17 25.7
002EF606 2019-04-14 04:55:54 21.9 17 25.7
002EF606 2019-04-14 04:22:20 21.9 17 25.8
002EF606 2019-04-14 03:48:47 21.9 17 25.7
002EF606 2019-04-14 03:15:14 21.9 17 25.6
002EF606 2019-04-14 02:41:41 21.9 17 25.7
002EF606 2019-04-14 02:08:08 21.9 17 25.7
002EF606 2019-04-14 01:34:35 21.9 17 25.6
002EF606 2019-04-14 01:01:02 21.9 17 25.5
002EF606 2019-04-14 00:27:30 21.9 17 25.6
002EF606 2019-04-13 23:53:57 21.9 17 25.6
002EF606 2019-04-13 23:20:25 21.9 17 25.6
002EF606 2019-04-13 22:46:53 21.9 17 25.6
002EF606 2019-04-13 22:13:20 21.9 17 25.6
002EF606 2019-04-13 21:39:49 22 17 25.2
002EF606 2019-04-13 21:06:16 22 17 25.2
002EF606 2019-04-13 20:32:44 22.1 17 25.1
002EF606 2019-04-13 19:59:12 22.1 17 25.2
002EF606 2019-04-13 19:25:39 22.1 17 25
002EF606 2019-04-13 18:52:07 22.1 17 24.5
002EF606 2019-04-13 18:18:34 22.1 17 24.5
002EF606 2019-04-13 17:45:02 22.2 17 24.3
002EF606 2019-04-13 17:11:29 22.1 17 23.8
002EF606 2019-04-13 16:37:55 22.1 17 23.8
002EF606 2019-04-13 16:04:22 22.1 17 23.9
002EF606 2019-04-13 15:30:50 22.3 17 24.1
002EF606 2019-04-13 14:57:17 22.3 17 24.1
002EF606 2019-04-13 14:23:45 22.4 17 24
002EF606 2019-04-13 13:50:12 22.3 17 24
002EF606 2019-04-13 13:16:39 22.3 17 24.5
002EF606 2019-04-13 12:43:06 22.3 17 24.4
002EF606 2019-04-13 12:09:32 22.3 17 24.3
002EF606 2019-04-13 11:35:58 22.3 17 24.3
002EF606 2019-04-13 11:02:25 22.3 17 24.4
002EF606 2019-04-13 10:28:53 22.3 17 24.3
002EF606 2019-04-13 09:55:20 22.3 17 24.4
002EF606 2019-04-13 09:21:48 22.3 17 24.3
002EF606 2019-04-13 08:48:16 22.3 17 24.4
002EF606 2019-04-13 08:14:41 22.3 17 24.4
002EF606 2019-04-13 07:41:09 22.3 17 24.4
002EF606 2019-04-13 07:07:35 22.3 17 24.3
002EF606 2019-04-13 06:34:02 22.3 17 24.3
002EF606 2019-04-13 06:00:28 22.3 17 24.2
002EF606 2019-04-13 05:26:55 22.3 17 24.2
002EF606 2019-04-13 04:53:21 22.3 17 24.7
002EF606 2019-04-13 04:19:47 22.4 17 25.1
002EF606 2019-04-13 03:46:13 22.3 17 25.5
002EF606 2019-04-13 03:12:39 22.3 17 25.6
002EF606 2019-04-13 02:39:06 22.3 17 25.5
002EF606 2019-04-13 02:05:32 22.3 17 25.5
002EF606 2019-04-13 01:31:58 22.3 17 25.4
002EF606 2019-04-13 00:58:24 22.5 17 25.5
002EF606 2019-04-13 00:24:51 22.5 17 25.6
002EF606 2019-04-12 23:51:17 22.5 18 25.7
002EF606 2019-04-12 23:17:43 22.6 18 25.3
002EF606 2019-04-12 22:44:08 22.5 18 25.3
002EF606 2019-04-12 22:10:33 22.8 18 25.4
002EF606 2019-04-12 21:36:57 22.8 18 25.6
002EF606 2019-04-12 21:03:22 22.8 18 25.7
002EF606 2019-04-12 20:29:46 22.8 18 25.8
002EF606 2019-04-12 19:56:11 22.8 17 25.8
002EF606 2019-04-12 19:22:36 22.8 17 26
002EF606 2019-04-12 18:49:02 22.9 17 26.1
002EF606 2019-04-12 18:15:27 23 16 26.3
002EF606 2019-04-12 17:41:51 23.1 17 26.4
002EF606 2019-04-12 17:08:16 23.2 17 26.7
002EF606 2019-04-12 16:34:40 23.1 16 27
002EF606 2019-04-12 16:01:05 23 17 27.5
002EF606 2019-04-12 15:27:29 23 17 28.1
002EF606 2019-04-12 14:53:54 22.8 18 27.5
002EF606 2019-04-12 14:20:19 22.5 19 26.1
002EF606 2019-04-12 13:46:43 21.9 20 20.7
002EF606 2019-04-12 13:13:09 21 22 8